GFSFLT1_sfc_30mbdewp_057.txt.gz
Dewpoint
50 52 53 53 54 55 58 60 61 62 67 70 71 70 69 69 69 64 63 64 62 61 59 59 71 70 69 70 70 70 71 69 69
48 51 52 54 55 55 57 60 62 63 65 69 71 69 70 70 69 67 61 63 68 64 63 61 62 67 69 68 68 69 70 68 70
47 53 51 52 55 56 57 58 60 63 65 68 69 69 71 70 70 70 67 67 69 67 66 67 64 65 66 68 69 69 71 68 68
40 46 49 51 55 57 58 58 59 61 63 66 68 69 69 69 69 69 69 70 70 70 69 69 69 68 67 68 68 69 72 71 68
36 38 45 49 51 55 57 59 59 60 62 63 66 68 69 69 69 68 68 68 70 71 71 70 71 71 69 69 67 69 71 69 67
33 36 40 47 49 52 56 58 60 60 61 62 63 67 67 68 68 69 67 70 70 70 72 72 70 71 71 70 68 70 71 71 70
31 35 38 42 47 51 55 58 61 62 60 61 61 63 64 67 68 69 69 69 71 71 72 72 72 72 72 71 70 69 69 70 71
32 34 37 40 44 52 58 59 62 63 61 62 61 63 64 65 68 69 70 69 71 71 72 73 73 73 72 72 70 68 69 70 70
36 38 38 39 45 48 52 56 62 64 64 63 63 64 64 65 68 70 70 70 71 72 72 73 73 72 72 72 68 66 65 68 68
43 46 46 49 49 47 49 53 58 62 65 65 65 65 66 66 69 70 70 70 71 72 72 72 73 73 72 72 72 66 64 64 67
52 52 52 53 54 53 53 52 54 58 62 67 66 66 68 68 69 70 71 72 72 73 73 73 73 73 73 73 73 70 65 64 67
56 57 58 58 58 57 58 58 54 54 60 66 67 68 68 69 69 71 72 72 72 73 73 73 73 73 74 74 73 69 67 65 67
56 58 60 61 62 62 62 62 61 58 55 62 68 68 69 70 70 72 72 73 73 74 73 73 71 72 74 74 74 72 67 67 68
54 57 62 63 65 64 64 64 63 62 57 60 66 69 70 71 72 72 73 74 74 74 74 71 73 72 73 73 74 74 69 66 70
51 55 55 59 66 64 63 63 63 65 64 61 66 69 70 71 73 72 72 74 74 74 74 73 73 73 73 71 74 73 70 66 67
50 53 55 58 64 67 66 63 59 64 64 66 68 70 71 71 72 73 72 74 74 73 74 71 71 70 69 68 68 71 70 67 67
52 54 55 57 61 65 68 69 70 68 67 68 70 70 71 72 72 72 72 72 72 71 70 70 68 68 67 66 65 63 66 69 66
53 55 56 56 57 59 60 63 65 67 70 69 68 71 70 71 71 71 71 71 70 69 69 68 68 65 64 62 63 64 66 67 71
55 54 55 55 55 56 57 58 59 62 65 70 70 70 70 69 68 70 70 69 68 62 65 66 66 67 69 71 68 68 66 67 70
53 53 53 54 55 55 56 56 57 59 62 65 70 70 70 68 67 69 69 69 68 68 66 63 64 65 67 66 68 69 67 66 67

GFSFLT1_sfc_30mbdewp_060.txt.gz
Dewpoint
53 53 53 55 57 58 59 59 61 64 68 69 70 71 68 69 70 67 67 69 63 66 64 67 71 73 73 73 72 72 71 72 72
57 55 56 54 57 58 60 60 61 64 67 69 70 69 71 68 70 69 65 67 67 66 66 68 72 72 73 72 72 72 72 71 71
51 52 57 59 56 57 59 61 62 63 67 69 71 71 71 70 67 70 68 66 68 66 67 65 73 73 72 72 72 72 72 71 71
53 53 59 64 62 57 58 60 62 62 64 69 71 71 71 70 70 68 68 68 66 70 68 72 69 71 71 72 71 72 72 71 71
51 54 59 57 59 58 57 59 60 63 63 65 70 71 71 71 71 69 68 66 69 70 71 70 72 71 72 70 71 72 72 72 69
50 53 55 57 57 61 57 58 60 61 63 64 67 70 70 70 70 70 69 68 67 70 71 72 71 73 72 72 71 71 72 73 72
28 51 57 56 57 60 58 59 60 61 61 63 64 68 69 69 70 70 70 70 68 71 71 71 72 72 73 73 72 71 71 73 73
30 31 39 39 47 52 58 60 62 62 62 62 63 65 67 69 70 70 70 69 70 68 70 72 72 73 73 73 73 71 70 71 72
53 35 37 41 45 51 58 62 63 63 63 63 63 64 66 68 70 70 70 70 70 71 70 71 73 73 73 73 72 70 68 70 70
55 54 47 53 53 53 57 58 63 64 65 64 64 65 66 67 69 70 70 71 70 72 71 72 72 73 73 73 73 69 66 67 70
50 58 55 56 55 56 58 63 63 64 65 66 66 66 67 67 68 69 71 71 71 71 72 72 72 73 73 73 73 72 67 65 68
59 56 57 59 58 58 61 62 62 62 64 66 66 67 67 69 68 69 70 71 71 71 71 72 72 73 73 73 73 72 70 66 67
54 58 57 60 62 63 63 63 62 62 62 67 67 66 68 68 69 69 70 71 71 72 72 72 72 72 73 73 73 72 70 68 69
52 53 57 58 60 63 65 68 65 64 63 63 68 68 67 70 71 70 71 72 72 72 72 72 73 72 73 74 74 74 70 66 70
52 53 54 57 59 64 69 71 69 66 66 65 66 70 69 70 71 71 71 73 73 73 73 73 73 73 73 73 74 74 71 68 67
52 54 55 56 58 61 63 65 70 71 69 69 68 69 70 71 72 72 71 73 73 74 74 73 73 72 73 72 73 74 72 69 67
51 55 56 55 56 56 58 60 63 67 68 72 70 66 72 71 73 73 72 73 74 74 73 73 72 72 72 72 71 71 74 70 67
52 54 55 55 55 55 55 57 61 63 64 67 70 70 71 72 72 72 73 72 73 73 73 73 72 71 71 71 70 69 69 71 70
54 54 54 56 55 55 56 56 57 59 61 63 68 71 72 71 71 72 73 72 70 65 70 68 70 70 70 69 68 66 64 61 69
52 53 53 54 55 55 56 56 56 57 59 61 64 69 71 70 70 70 71 71 71 69 65 61 62 65 67 71 69 68 67 66 65

GFSFLT1_sfc_30mbdewp_063.txt.gz
Dewpoint
55 55 54 57 57 56 57 62 63 65 66 68 68 67 67 69 71 66 67 69 69 69 69 69 71 72 72 71 73 70 71 70 71
51 59 59 59 58 57 57 60 62 64 66 66 69 68 66 68 70 68 67 67 69 69 69 69 70 73 71 71 72 72 71 70 71
57 60 60 62 63 59 59 58 62 63 67 67 68 69 68 66 68 71 68 67 67 69 66 69 70 73 72 72 72 71 72 70 71
58 57 59 60 63 62 61 60 60 63 67 67 68 68 70 67 65 69 70 68 65 69 67 70 72 72 73 73 72 73 72 70 71
58 57 57 62 62 59 59 60 60 61 64 68 68 69 68 70 67 66 69 68 68 65 68 69 72 72 72 72 72 72 72 71 70
56 56 60 58 58 56 58 59 59 61 62 67 68 69 69 69 69 66 65 66 68 67 68 67 71 72 72 72 71 71 72 72 71
56 55 57 57 54 51 50 53 58 60 61 63 69 70 70 69 69 69 66 66 65 69 68 72 69 72 71 72 71 71 71 72 72
55 58 58 57 54 54 62 59 63 61 61 62 65 69 70 70 70 69 70 67 67 64 70 68 73 71 73 72 72 71 71 71 72
54 59 58 61 57 56 59 57 56 62 61 62 63 66 69 70 70 70 70 70 69 67 65 71 68 70 71 73 72 71 70 70 72
57 56 56 57 61 61 61 62 63 61 65 63 63 64 68 69 69 70 70 70 70 70 66 68 71 70 71 71 72 71 70 70 69
55 57 58 59 60 60 62 62 66 68 67 65 67 64 65 68 69 69 70 70 70 69 70 67 67 70 72 72 72 72 70 69 69
52 54 56 57 58 60 61 63 63 64 63 65 65 66 66 68 68 69 70 69 70 69 70 70 69 70 71 72 72 72 71 68 67
51 53 55 55 57 59 60 63 66 65 60 63 64 66 67 68 68 69 69 70 69 70 69 69 71 70 71 72 72 72 71 69 68
50 53 54 56 57 57 60 64 64 71 68 65 66 68 69 69 69 68 70 70 70 70 70 70 70 71 71 72 73 73 71 69 71
49 51 55 55 56 57 59 61 62 64 67 68 69 67 69 70 70 69 70 70 70 71 70 70 70 70 71 72 72 72 71 69 68
49 52 55 55 55 55 56 57 58 61 62 64 65 70 68 70 71 71 69 71 70 71 71 71 70 71 71 71 72 73 71 70 68
49 52 55 56 55 54 55 56 56 58 59 61 63 67 70 71 70 71 70 72 71 71 71 71 71 71 71 71 71 72 73 70 67
50 51 55 55 56 55 54 55 56 56 57 60 61 64 71 71 70 71 71 71 73 72 72 72 71 71 71 71 72 72 72 73 71
51 54 54 54 55 55 54 55 54 55 55 57 59 61 68 71 71 72 71 71 69 65 69 71 71 72 72 72 70 72 70 70 71
52 53 52 53 54 53 53 54 52 53 54 56 58 59 62 65 71 72 72 72 71 70 66 61 63 66 71 70 69 65 66 65 67

GFSFLT1_sfc_30mbdewp_069.txt.gz
Dewpoint
60 59 59 58 55 58 59 59 60 64 65 64 65 66 66 66 65 66 67 67 67 68 68 70 71 70 70 71 69 69 70 70 70
60 59 58 58 55 56 59 60 60 63 65 64 65 65 66 67 66 65 65 67 68 68 69 70 70 71 70 70 71 70 70 70 69
58 59 58 58 56 56 58 59 61 63 65 64 65 65 65 66 67 68 66 67 68 68 69 69 70 71 71 70 71 71 70 70 70
56 56 57 59 58 56 58 59 60 61 64 64 65 65 65 65 65 68 69 67 67 68 69 69 69 70 71 70 70 71 70 69 69
56 56 58 60 60 58 58 60 60 60 62 64 65 65 64 64 64 65 67 68 67 67 67 69 69 69 71 71 70 70 70 70 70
59 60 60 60 61 62 62 62 62 62 62 64 65 65 65 65 64 64 65 67 68 67 67 67 68 69 70 71 71 70 70 70 70
57 59 60 62 62 61 61 61 61 62 63 63 64 65 66 65 65 64 64 64 67 68 67 66 67 70 71 71 71 71 70 71 70
56 57 58 58 58 59 62 63 61 60 61 64 65 64 65 66 66 65 64 63 64 66 68 67 66 67 71 71 71 71 71 71 71
52 53 55 57 59 60 60 62 65 64 63 62 66 65 65 66 66 67 66 64 63 63 65 67 67 66 67 70 71 70 70 71 71
51 53 54 55 56 59 60 62 64 65 66 65 65 66 66 66 67 67 68 67 65 63 63 64 64 66 67 67 69 70 69 69 70
49 53 54 55 56 57 59 62 63 64 67 67 66 66 66 67 67 67 68 69 68 66 64 64 63 63 64 67 68 68 69 69 70
44 50 54 55 55 57 59 60 60 64 67 66 62 64 66 68 68 69 68 68 68 69 67 66 65 64 63 64 65 68 68 68 69
42 45 50 55 55 56 57 57 59 61 63 63 63 65 67 68 66 70 70 70 69 69 69 68 68 67 65 65 66 65 67 68 69
42 44 46 54 55 55 54 57 57 58 60 59 60 62 63 64 67 69 68 70 70 70 69 69 69 69 68 66 67 68 65 66 70
43 44 46 51 54 55 54 56 56 56 56 57 59 60 61 63 65 67 69 69 69 70 69 69 69 69 69 69 67 67 68 66 66
45 46 46 49 53 55 55 55 55 53 55 55 57 58 59 61 62 64 68 70 68 68 69 69 69 69 68 69 69 69 66 65 66
45 45 47 49 52 54 55 54 54 54 53 53 54 56 58 59 60 61 65 69 71 69 70 69 69 69 68 68 69 70 70 68 65
45 45 47 49 52 53 54 53 53 52 52 52 52 52 56 58 58 59 61 63 70 70 70 70 69 69 69 69 68 68 70 70 70
45 45 47 49 52 53 51 49 49 50 49 50 51 51 53 55 56 58 59 62 65 68 67 67 68 68 69 69 69 69 68 69 69
46 48 49 51 52 51 48 47 47 48 47 48 49 50 52 53 53 56 58 59 61 66 68 65 65 64 66 66 68 67 67 67 67

GFSFLT1_sfc_30mbdewp_072.txt.gz
Dewpoint
59 60 60 60 56 58 59 60 61 62 63 64 64 66 66 66 66 66 66 66 66 66 67 69 70 70 70 71 70 69 69 69 70
58 61 60 59 56 58 59 60 60 62 63 63 64 65 66 66 66 66 66 67 67 67 68 69 70 70 70 70 71 70 70 70 69
57 60 60 60 59 57 59 59 60 62 63 63 64 65 65 66 66 66 66 67 67 68 68 69 70 70 71 70 70 71 70 70 70
59 57 60 59 59 56 58 59 59 60 63 64 64 64 65 65 66 66 66 66 67 68 68 69 69 70 70 70 70 71 70 70 70
59 61 59 60 60 59 58 59 60 61 62 64 64 64 65 65 65 67 67 66 66 67 68 69 69 70 70 70 70 71 71 70 70
56 58 60 61 62 62 61 61 61 61 62 64 64 65 65 65 65 65 66 67 67 67 67 67 68 69 69 70 71 71 71 70 70
53 55 57 58 59 61 63 63 63 63 62 63 65 65 65 64 64 64 65 66 67 67 67 67 67 68 69 70 70 71 71 71 70
51 53 54 56 58 60 61 63 65 65 63 64 64 65 65 65 65 65 65 65 66 67 67 67 67 67 69 69 71 71 71 71 70
49 52 53 54 56 58 59 62 63 65 66 65 64 64 64 66 66 66 65 65 64 65 67 67 67 67 67 68 69 70 70 71 71
43 45 50 53 54 56 58 60 62 62 64 66 66 65 65 65 66 67 67 66 65 64 64 66 67 66 66 67 69 68 69 70 71
38 41 43 48 54 55 56 59 59 60 65 67 66 65 66 66 66 66 67 67 66 65 64 64 65 66 66 66 67 67 67 68 70
40 41 43 45 49 55 56 56 58 59 63 63 64 65 66 67 67 67 67 68 68 68 66 65 64 64 65 65 66 65 66 67 68
41 41 42 45 46 52 55 55 57 57 60 60 60 62 63 63 66 68 68 68 68 69 69 67 66 65 65 64 64 64 64 65 67
40 41 42 45 47 49 54 56 56 55 57 57 58 60 62 63 64 66 68 70 70 69 69 69 69 68 67 67 65 65 63 63 67
40 41 42 46 46 47 52 56 56 54 54 56 56 58 59 62 63 63 65 66 67 70 70 70 69 69 69 69 68 65 65 63 64
38 39 42 45 45 47 50 54 55 54 54 54 54 55 56 58 61 62 63 64 66 69 70 70 70 69 69 69 70 69 65 64 63
38 39 42 43 44 46 49 52 55 54 54 53 51 52 54 56 58 60 61 62 64 65 70 70 69 69 69 69 69 70 70 66 64
39 42 43 44 44 45 47 52 53 52 51 50 49 50 52 54 57 57 58 59 61 63 66 70 70 70 70 70 69 69 70 70 68
42 43 43 44 44 45 47 52 52 49 49 48 47 48 50 52 54 54 55 58 59 61 62 63 66 66 70 71 70 69 68 68 67
43 44 45 47 47 48 49 51 49 47 46 46 46 47 48 51 51 51 54 56 57 57 60 62 63 64 65 65 69 68 66 66 65